Osceola, WI

12:11 PM CDT on April 28, 2017 (GMT -0500)
Simenstad Municipal

Weather History for KOEO - October, 2012

Change the Weather History Date:

Tuesday, October 23, 2012

  Actual Average (KANE) Record (KANE)
Temperature  
Mean Temperature 56 °F -  
Max Temperature 59 °F 52 °F 68 °F (1998)
Min Temperature 53 °F 36 °F 26 °F (1999)
Degree Days  
Heating Degree Days 9    
Growing Degree Days 6 (Base 50)    
Moisture  
Dew Point 54 °F    
Average Humidity 94    
Maximum Humidity 100    
Minimum Humidity 77    
Precipitation  
Precipitation 0.01 in - - ()
Sea Level Pressure  
Sea Level Pressure 29.81 in    
Wind  
Wind Speed 8 mph (ESE)    
Max Wind Speed 15 mph    
Max Gust Speed 21 mph    
Visibility 4 miles    
Events Fog    
Averages and records for this station are not official NWS values.
T = Trace of Precipitation, MM = Missing Value Source: NWS Daily Summary

Daily Weather History Graph

Daily Weather History Graph

Search for Another Location

Airport or City:

Trip Planner

Search our weather history database for the weather conditions in past years. The results will help you decide how hot, cold, wet, or windy it might be!

Date:

Astronomy

Oct. 23, 2012 Rise Set
Actual Time 7:38 AM CDT 6:11 PM CDT
Civil Twilight 7:07 AM CDT 6:41 PM CDT
Nautical Twilight 6:33 AM CDT 7:15 PM CDT
Astronomical Twilight 5:59 AM CDT 7:49 PM CDT
Moon 3:09 PM CDT (10/23) 1:14 AM CDT (10/23)
Length of Visible Light 11h 33m
Length of Day
10h 32m
Waxing Gibbous, 67% of the Moon is Illuminated
Oct 23
Waxing Gibbous
Oct 29
Full
Nov 6
Last Quarter
Nov 13
New
Nov 20
First Quarter

Hourly Weather History & Observations

Time (CDT) Temp. Dew Point Humidity Pressure Visibility Wind Dir Wind Speed Gust Speed Precip Events Conditions
12:15 AM 53.6 °F 46.4 °F 77% 29.91 in 10.0 mi ENE 10.4 mph - N/A   Overcast
12:35 AM 53.6 °F 46.4 °F 77% 29.91 in 10.0 mi ENE 8.1 mph - N/A   Overcast
1:15 AM 53.6 °F 48.2 °F 82% 29.91 in 10.0 mi East 6.9 mph - N/A   Overcast
1:35 AM 53.6 °F 48.2 °F 82% 29.90 in 10.0 mi East 6.9 mph - N/A   Overcast
1:55 AM 53.6 °F 50.0 °F 88% 29.90 in 10.0 mi East 6.9 mph - N/A   Overcast
2:15 AM 53.6 °F 50.0 °F 88% 29.90 in 10.0 mi East 9.2 mph - N/A   Overcast
2:35 AM 53.6 °F 50.0 °F 88% 29.89 in 10.0 mi East 12.7 mph 16.1 mph N/A   Overcast
3:15 AM 53.6 °F 51.8 °F 94% 29.88 in 7.0 mi East 10.4 mph - N/A   Overcast
3:35 AM 53.6 °F 51.8 °F 94% 29.87 in 7.0 mi East 9.2 mph - N/A   Overcast
3:55 AM 53.6 °F 51.8 °F 94% 29.85 in 7.0 mi East 11.5 mph 16.1 mph N/A   Overcast
4:15 AM 53.6 °F 51.8 °F 94% 29.85 in 7.0 mi East 10.4 mph - N/A   Overcast
4:35 AM 53.6 °F 51.8 °F 94% 29.85 in 7.0 mi East 10.4 mph - N/A   Overcast
4:55 AM 53.6 °F 51.8 °F 94% 29.84 in 7.0 mi East 10.4 mph 16.1 mph N/A   Overcast
5:15 AM 53.6 °F 51.8 °F 94% 29.84 in 5.0 mi East 6.9 mph - N/A   Overcast
5:35 AM 53.6 °F 51.8 °F 94% 29.84 in 5.0 mi East 10.4 mph - N/A   Overcast
5:55 AM 53.6 °F 51.8 °F 94% 29.84 in 5.0 mi East 6.9 mph - N/A   Overcast
6:35 AM 53.6 °F 51.8 °F 94% 29.84 in 7.0 mi East 8.1 mph - N/A   Overcast
6:55 AM 53.6 °F 51.8 °F 94% 29.84 in 5.0 mi ESE 9.2 mph - N/A   Overcast
7:15 AM 53.6 °F 51.8 °F 94% 29.81 in 7.0 mi ESE 15.0 mph 20.7 mph N/A   Overcast
7:35 AM 53.6 °F 51.8 °F 94% 29.82 in 7.0 mi ESE 12.7 mph - N/A   Overcast
7:55 AM 53.6 °F 51.8 °F 94% 29.84 in 4.0 mi SE 9.2 mph - N/A   Overcast
8:15 AM 53.6 °F 51.8 °F 94% 29.84 in 3.0 mi ESE 10.4 mph 16.1 mph N/A   Overcast
8:35 AM 53.6 °F 53.6 °F 100% 29.83 in 3.0 mi ESE 9.2 mph - N/A   Overcast
8:55 AM 53.6 °F 53.6 °F 100% 29.83 in 4.0 mi ESE 10.4 mph - N/A   Overcast
9:15 AM 53.6 °F 53.6 °F 100% 29.83 in 5.0 mi ESE 10.4 mph - N/A   Overcast
9:35 AM 55.4 °F 51.8 °F 88% 29.82 in 5.0 mi ESE 9.2 mph - N/A   Overcast
9:55 AM 55.4 °F 53.6 °F 94% 29.82 in 7.0 mi ESE 10.4 mph - N/A   Overcast
10:15 AM 55.4 °F 53.6 °F 94% 29.81 in 5.0 mi ESE 12.7 mph - N/A   Overcast
10:55 AM 55.4 °F 53.6 °F 94% 29.81 in 4.0 mi SE 10.4 mph - N/A   Overcast
11:15 AM 55.4 °F 53.6 °F 94% 29.80 in 4.0 mi ESE 12.7 mph - N/A   Overcast
11:35 AM 55.4 °F 53.6 °F 94% 29.79 in 4.0 mi ESE 8.1 mph - N/A   Overcast
11:55 AM 57.2 °F 53.6 °F 88% 29.79 in 5.0 mi SE 9.2 mph - N/A   Overcast
12:15 PM 59.0 °F 55.4 °F 88% 29.79 in 5.0 mi SE 9.2 mph - N/A   Overcast
12:35 PM 59.0 °F 55.4 °F 88% 29.78 in 5.0 mi SE 10.4 mph 17.3 mph N/A   Overcast
12:55 PM 59.0 °F 55.4 °F 88% 29.78 in 5.0 mi SE 10.4 mph - N/A   Overcast
1:15 PM 59.0 °F 55.4 °F 88% 29.77 in 4.0 mi SE 10.4 mph - N/A   Overcast
1:35 PM 59.0 °F 55.4 °F 88% 29.76 in 4.0 mi ESE 11.5 mph - N/A   Overcast
1:55 PM 59.0 °F 55.4 °F 88% 29.75 in 4.0 mi ESE 8.1 mph - N/A   Overcast
2:15 PM 59.0 °F 55.4 °F 88% 29.75 in 3.0 mi ESE 8.1 mph - N/A   Overcast
2:35 PM 57.2 °F 55.4 °F 94% 29.75 in 1.5 mi ESE 9.2 mph - N/A   Overcast
2:55 PM 57.2 °F 55.4 °F 94% 29.74 in 1.8 mi ESE 10.4 mph - N/A   Overcast
3:15 PM 57.2 °F 55.4 °F 94% 29.73 in 2.0 mi ESE 10.4 mph - N/A   Overcast
3:35 PM 57.2 °F 55.4 °F 94% 29.74 in 2.0 mi ESE 9.2 mph - N/A   Overcast
3:55 PM 57.2 °F 55.4 °F 94% 29.74 in 1.8 mi ESE 8.1 mph - N/A   Overcast
4:15 PM 57.2 °F 55.4 °F 94% 29.74 in 1.0 mi ESE 6.9 mph - N/A   Overcast
4:35 PM 57.2 °F 55.4 °F 94% 29.73 in 1.2 mi ESE 8.1 mph - N/A   Drizzle
4:55 PM 57.2 °F 55.4 °F 94% 29.74 in 1.5 mi East 4.6 mph - N/A   Drizzle
5:15 PM 57.2 °F 55.4 °F 94% 29.74 in 1.5 mi ESE 5.8 mph - N/A   Drizzle
5:35 PM 57.2 °F 55.4 °F 94% 29.74 in 1.5 mi ESE 5.8 mph - N/A   Drizzle
5:55 PM 59.0 °F 57.2 °F 94% 29.75 in 1.2 mi SE 6.9 mph - N/A   Drizzle
6:15 PM 59.0 °F 57.2 °F 94% 29.76 in 2.5 mi SE 4.6 mph - 0.01 in   Drizzle
6:35 PM 59.0 °F 57.2 °F 94% 29.77 in 2.5 mi Calm Calm - 0.01 in   Light Drizzle
6:55 PM 59.0 °F 59.0 °F 100% 29.77 in 2.5 mi SE 3.5 mph - 0.01 in   Light Drizzle
7:15 PM 59.0 °F 59.0 °F 100% 29.78 in 2.0 mi WSW 4.6 mph - N/A   Overcast
7:35 PM 59.0 °F 59.0 °F 100% 29.79 in 3.0 mi South 3.5 mph - N/A   Overcast
7:55 PM 59.0 °F 59.0 °F 100% 29.79 in 3.0 mi SE 3.5 mph - N/A   Overcast
8:15 PM 59.0 °F 59.0 °F 100% 29.79 in 3.0 mi SE 4.6 mph - N/A   Overcast
8:35 PM 59.0 °F 59.0 °F 100% 29.79 in 3.0 mi SE 4.6 mph - N/A   Overcast
8:55 PM 59.0 °F 57.2 °F 94% 29.79 in 2.0 mi SE 4.6 mph - N/A   Overcast
9:15 PM 59.0 °F 59.0 °F 100% 29.79 in 2.0 mi SE 3.5 mph - N/A   Overcast
9:35 PM 59.0 °F 59.0 °F 100% 29.79 in 2.0 mi Calm Calm - N/A   Overcast
9:55 PM 59.0 °F 59.0 °F 100% 29.80 in 2.0 mi Calm Calm - N/A   Overcast
10:15 PM 59.0 °F 59.0 °F 100% 29.81 in 0.2 mi SSE 5.8 mph - N/A Fog Fog
10:35 PM 59.0 °F 59.0 °F 100% 29.80 in 0.2 mi SE 3.5 mph - N/A Fog Fog
10:55 PM 59.0 °F 59.0 °F 100% 29.81 in 0.2 mi Calm Calm - N/A Fog Fog
11:15 PM 59.0 °F 59.0 °F 100% 29.81 in 0.2 mi Calm Calm - N/A Fog Fog
11:35 PM 59.0 °F 59.0 °F 100% 29.81 in 0.2 mi Calm Calm - N/A Fog Fog
11:55 PM 59.0 °F 59.0 °F 100% 29.81 in 0.2 mi Calm Calm - N/A Fog Fog